Wind_Speed
56 56 55 55 55 55 55 54 54 53 54 54 54 54 54 53 53 54 55 57 59 62 64 66 67 67 67 67 66 66 65 63 61 58 56 53 51 50 49 50 52 56 60 63 64 66 69 73 76 80 81 80 79 78 76 75 74 72 69 64 59 57 55 51 48 49 49 47 45 43 41 40 41 42 41 40 40 39 38 37 36 34 32 33 35
57 57 56 56 56 55 56 55 55 54 54 54 55 54 54 53 54 55 57 59 61 63 65 67 67 67 67 67 67 66 66 65 63 61 59 56 53 51 49 48 50 53 58 62 65 66 69 72 75 78 79 79 79 78 76 76 75 73 70 65 60 58 58 55 51 48 48 48 47 44 41 39 40 42 42 41 41 40 39 38 36 34 33 34 35
57 57 57 57 56 56 56 56 56 55 55 55 55 55 54 54 55 57 59 61 63 65 66 67 67 67 67 67 67 66 66 65 64 63 61 58 55 52 50 48 48 51 55 60 64 66 68 72 75 76 77 78 78 77 77 76 76 74 71 66 63 62 60 58 54 51 50 49 48 46 43 39 40 43 42 42 42 41 40 39 37 36 35 35 35
58 58 58 58 57 57 57 57 57 56 56 56 56 55 55 55 57 59 62 64 65 66 67 67 67 67 68 67 67 67 66 65 64 63 62 60 57 54 52 48 46 48 52 57 62 66 68 70 74 75 76 77 77 77 77 77 77 75 72 69 65 63 60 56 55 53 51 49 48 48 45 40 40 42 43 42 43 42 41 40 39 37 36 36 36
59 59 58 58 58 58 57 57 57 57 57 57 57 56 56 57 59 61 64 66 66 67 67 67 68 68 68 68 68 67 66 65 65 64 62 60 58 56 53 48 45 45 48 53 59 64 67 70 73 75 76 76 77 78 78 78 77 75 74 71 67 63 59 55 54 53 52 51 49 48 45 41 39 41 43 44 44 43 42 41 40 38 37 38 37
60 59 59 59 58 58 58 58 57 57 57 57 57 57 58 59 61 63 65 67 68 68 68 68 68 69 69 69 69 69 67 66 66 66 64 61 59 56 53 49 45 43 45 49 55 61 65 69 72 74 76 77 77 78 78 77 76 75 75 73 69 64 61 57 56 55 54 53 52 48 45 43 40 40 43 45 45 45 44 42 41 39 38 39 39
61 60 59 59 59 59 59 58 57 57 57 58 58 58 59 61 63 65 67 68 69 70 70 70 70 71 71 70 70 70 69 67 67 67 65 62 58 55 53 50 45 42 41 44 50 57 62 68 71 74 77 77 77 78 78 77 76 75 75 75 72 68 65 62 61 60 57 56 55 51 47 46 42 39 41 45 46 46 45 44 44 42 40 39 38
62 61 61 60 60 60 59 58 58 57 58 58 59 59 61 63 65 67 69 70 71 72 72 73 73 74 74 73 72 71 70 69 69 68 66 62 58 54 51 49 45 41 40 42 47 53 60 65 70 74 76 77 78 78 78 77 76 75 75 76 75 72 69 67 66 64 61 59 58 56 51 49 47 42 41 45 48 49 49 48 45 42 39 37 36
63 63 62 61 61 60 60 59 58 58 58 59 59 61 62 64 67 69 71 72 73 74 75 76 77 77 76 75 73 72 71 71 70 70 67 63 58 53 48 46 44 41 40 41 44 50 56 62 67 72 75 78 79 78 78 79 78 77 76 77 77 75 73 71 69 67 65 61 60 59 55 52 50 47 43 45 50 52 52 49 45 41 39 37 35
65 64 63 62 61 61 60 60 59 59 59 60 61 62 64 66 69 71 72 74 76 77 79 79 80 80 79 77 75 73 72 72 71 70 66 61 57 52 46 43 42 41 40 40 42 46 52 58 63 69 73 77 79 78 78 79 80 79 79 78 77 77 75 73 71 70 68 64 61 61 59 55 53 50 47 46 50 53 52 49 46 43 41 39 37
66 65 64 63 62 61 61 61 60 60 60 61 63 64 66 68 70 72 74 76 79 80 81 82 82 82 82 80 77 74 73 72 72 69 64 59 54 49 44 41 40 40 40 39 39 43 47 53 59 64 70 75 78 79 80 80 79 80 80 79 78 78 76 74 73 71 68 65 62 62 61 58 56 53 50 48 49 52 53 52 49 46 42 40 38
67 66 65 63 62 62 62 62 61 61 61 63 64 67 68 70 71 74 76 79 81 82 83 83 84 84 83 81 78 75 73 72 71 67 60 55 51 46 41 38 38 39 39 37 38 40 43 48 54 60 66 72 77 80 80 79 79 80 80 79 78 77 76 74 73 71 68 65 63 63 61 60 59 57 55 51 49 52 55 54 51 47 44 41 40
68 67 65 64 63 63 62 62 62 62 63 64 66 68 69 71 73 76 78 81 83 84 84 84 85 86 85 82 80 77 74 72 69 63 57 52 47 42 38 36 36 38 38 37 36 37 40 44 50 56 62 67 74 78 79 78 78 78 79 78 77 76 75 75 73 70 67 66 65 63 62 61 60 59 58 56 52 53 56 55 52 49 46 44 41
69 67 66 65 64 63 63 62 62 63 64 65 67 68 70 72 74 77 80 82 84 85 86 86 87 87 86 83 80 77 74 71 66 59 53 49 44 38 34 34 35 36 37 35 33 34 37 40 45 51 57 63 69 75 77 77 76 77 77 77 76 75 75 75 73 69 67 66 65 64 63 62 61 60 60 59 55 54 57 57 53 50 48 45 42
69 68 67 66 65 64 63 63 63 64 65 66 67 69 71 73 75 79 82 84 85 87 88 88 88 88 87 84 80 76 73 69 62 55 50 46 40 35 32 33 34 35 34 32 30 32 35 37 41 46 53 59 65 70 75 77 77 76 76 76 74 74 73 73 71 69 68 67 66 66 65 64 64 63 60 59 56 55 59 59 54 51 49 47 45
70 69 67 66 65 64 64 64 64 65 66 67 68 70 72 74 77 80 83 85 86 88 89 89 89 89 88 84 79 74 70 65 58 51 47 43 37 32 31 32 32 32 30 28 28 30 32 35 38 42 48 54 61 67 72 76 76 75 74 74 73 72 71 71 70 69 68 67 67 67 67 65 65 64 61 59 58 57 60 61 57 53 52 50 49
70 69 68 67 66 65 65 64 64 65 66 68 69 71 74 76 79 82 85 86 87 88 89 89 89 89 88 84 79 73 68 61 54 48 44 40 34 30 30 31 31 30 28 26 25 26 29 32 35 38 44 50 57 63 68 72 74 74 73 72 71 70 70 70 69 68 68 68 67 68 68 66 65 64 62 61 60 58 59 62 60 56 53 51 52
71 70 69 67 66 66 65 65 65 66 68 70 71 73 76 79 81 84 87 89 89 90 89 89 89 89 88 85 80 72 65 58 51 45 42 37 31 29 29 31 31 29 27 25 23 23 25 29 32 35 40 46 53 59 64 69 72 72 72 72 71 70 70 69 68 68 69 68 68 68 68 66 65 65 64 62 60 58 58 62 62 59 54 52 53
72 71 69 68 67 66 65 65 66 68 70 72 73 76 79 81 83 86 89 90 91 91 90 89 87 86 84 82 78 70 61 54 47 42 38 34 30 28 29 30 30 28 27 25 23 22 22 24 28 32 37 42 49 55 60 65 69 70 71 71 70 69 70 68 67 67 68 68 68 68 68 67 65 66 65 63 61 60 60 62 63 59 56 56 56
72 72 71 69 67 66 66 67 68 70 72 74 76 78 81 83 85 87 90 91 91 91 90 88 85 82 78 75 71 65 57 50 44 39 35 32 30 28 29 30 30 28 27 27 25 23 21 21 24 27 32 37 44 50 56 61 66 68 68 69 69 69 68 66 65 66 67 68 68 68 68 67 65 66 66 65 62 60 61 63 63 61 59 59 57
72 72 70 67 66 68 69 70 70 72 74 76 78 80 83 85 87 89 91 92 91 90 89 86 82 78 72 68 64 59 52 46 40 36 32 30 30 29 29 30 30 29 29 28 26 23 20 20 22 25 27 32 37 44 51 57 62 65 66 67 68 67 66 65 65 66 66 67 67 67 67 66 65 66 68 67 64 62 61 63 64 62 61 60 58
72 71 68 67 68 71 72 72 73 75 76 78 80 83 85 87 89 91 92 92 91 90 87 84 79 73 67 62 57 52 47 42 37 32 30 30 29 29 29 30 30 31 31 29 26 23 19 19 22 24 25 28 31 37 44 52 58 62 65 66 67 66 65 65 65 65 65 65 66 66 66 66 66 67 69 70 68 66 64 64 64 64 63 61 59
71 71 70 70 72 73 73 74 76 77 78 80 82 85 87 89 90 92 92 92 90 88 85 80 75 68 61 56 50 45 40 36 32 29 27 28 30 30 30 30 31 32 32 30 27 23 19 20 22 23 24 26 28 30 37 45 52 59 63 65 66 66 66 65 64 64 62 61 63 65 66 66 66 68 70 71 71 69 66 65 65 64 64 63 61
71 71 72 73 74 74 75 77 78 80 81 83 85 87 89 91 92 93 92 91 89 85 81 76 70 64 56 50 45 40 34 31 30 28 26 27 30 31 31 30 32 33 33 33 29 24 20 22 23 22 22 24 25 25 28 35 45 54 59 63 65 66 65 64 64 62 59 58 61 64 65 66 67 68 70 72 72 70 68 66 66 66 66 65 64
73 73 73 74 75 76 78 79 81 82 84 85 87 89 91 93 93 93 91 89 86 82 77 71 65 59 52 45 41 38 34 30 30 29 27 28 31 33 32 32 34 35 36 35 31 26 24 26 25 23 24 25 23 21 21 25 34 44 53 60 63 64 64 64 63 62 59 58 60 62 63 64 65 66 67 69 71 71 70 68 67 68 69 68 65
75 75 76 77 78 79 81 83 84 85 86 87 89 91 92 93 93 92 90 87 83 78 72 66 59 53 48 42 38 35 32 28 27 28 29 29 32 34 34 33 35 38 40 37 32 28 28 30 28 25 28 28 23 22 21 20 23 31 41 51 58 61 62 63 63 62 61 60 61 61 62 63 64 64 64 67 69 70 72 73 71 70 71 71 70
78 78 79 80 81 82 84 85 86 87 88 89 91 91 92 93 91 90 88 84 79 73 66 60 55 49 44 39 35 32 29 28 28 29 29 30 33 36 36 36 37 41 43 40 35 32 31 33 31 30 30 29 26 25 25 23 20 22 28 37 47 53 57 60 61 61 61 60 61 61 60 61 64 65 66 68 69 70 72 74 74 73 72 72 73
80 81 82 83 84 86 87 88 88 89 90 91 92 92 91 91 89 87 84 80 74 68 61 55 51 46 40 35 32 29 28 28 28 28 29 30 34 38 39 39 39 43 46 43 39 36 35 36 36 34 32 31 30 29 30 29 27 24 24 27 33 40 47 52 55 57 58 56 56 57 58 59 62 66 68 69 71 72 73 74 74 75 75 75 75
83 83 85 86 87 88 89 90 90 92 92 92 92 91 90 89 87 83 80 76 69 62 55 50 47 42 37 32 28 27 28 27 26 27 29 30 35 40 43 42 42 45 49 47 43 41 41 41 39 37 36 35 33 32 33 34 33 31 28 26 28 31 36 42 48 52 55 52 50 52 55 56 58 61 66 69 73 75 75 75 76 76 76 76 77
85 86 87 89 90 91 91 92 92 93 93 92 91 89 87 86 83 79 75 71 63 54 48 44 42 39 35 30 26 25 27 27 26 27 28 31 36 42 45 45 45 47 50 51 48 45 46 45 42 39 38 37 35 35 35 35 36 36 34 32 31 31 32 35 40 46 51 52 50 49 52 55 56 59 62 67 72 76 77 76 77 78 78 78 78
87 89 90 91 92 93 93 93 93 93 92 92 90 87 85 83 79 73 68 63 55 47 41 39 38 36 33 29 26 25 26 27 27 27 28 30 37 45 48 47 47 48 49 51 51 49 48 49 46 43 41 40 39 39 37 36 38 41 40 38 37 36 35 34 37 41 45 49 50 48 48 51 55 59 62 64 68 74 78 77 77 77 79 79 78
90 91 92 92 93 94 94 94 93 92 91 90 88 85 82 78 72 65 58 53 48 44 40 37 36 34 32 29 27 26 27 27 27 28 28 30 36 45 50 50 50 50 49 49 51 52 51 51 49 46 44 43 43 42 40 39 40 42 44 44 42 41 40 39 40 42 43 45 47 47 46 47 49 55 61 65 67 70 73 76 77 77 78 79 78
93 93 94 94 95 95 95 94 93 91 89 87 85 83 78 72 64 58 52 46 44 43 40 37 35 34 31 29 28 28 28 28 28 29 29 30 34 44 52 53 52 53 51 50 52 54 54 53 52 50 48 47 46 45 44 44 43 42 45 48 47 45 44 44 44 45 44 44 45 46 48 49 50 52 57 63 67 69 70 72 75 76 78 79 79
95 95 96 96 96 95 95 94 92 90 87 84 82 78 72 64 57 51 46 41 40 41 41 37 35 34 32 31 30 29 30 29 29 29 30 30 32 41 51 55 55 56 55 53 55 57 57 56 56 54 52 50 49 48 48 48 48 46 46 49 51 50 47 46 46 45 44 44 45 47 49 52 53 53 56 59 63 67 69 71 73 75 77 79 79
96 97 97 97 96 95 94 92 90 87 84 81 78 73 67 61 54 47 43 40 39 39 40 38 36 34 33 32 32 31 30 31 31 31 31 31 32 37 47 55 58 59 59 57 58 61 61 59 59 58 56 54 53 52 51 51 52 52 49 49 51 52 51 49 49 48 47 46 46 47 50 52 53 54 55 56 59 62 66 69 71 72 75 78 79
97 97 97 97 96 94 92 89 86 84 81 78 74 69 63 58 53 47 44 41 38 36 37 37 37 36 35 33 33 32 32 31 32 32 32 32 32 35 43 52 59 62 62 60 61 63 64 63 62 62 60 58 57 56 54 53 54 56 55 51 51 53 53 53 53 53 52 51 52 52 51 52 54 56 56 56 57 59 63 67 69 70 72 75 78
98 97 96 95 94 92 89 86 83 81 78 73 69 64 58 54 50 46 43 40 36 35 36 37 37 38 37 36 35 34 33 33 33 33 33 33 33 35 39 47 57 64 66 64 63 66 67 67 66 66 64 62 61 59 58 56 56 59 59 56 54 55 56 55 56 56 56 56 57 57 56 55 55 57 59 60 61 61 62 65 68 69 71 73 76
96 95 94 92 91 89 86 83 80 77 73 68 64 59 54 50 47 44 41 38 36 36 36 37 38 40 41 40 37 35 35 35 34 33 34 34 34 35 37 43 52 63 69 69 67 68 70 70 71 70 68 66 65 64 62 60 59 61 62 62 60 59 59 59 59 59 59 59 60 61 61 59 58 59 60 61 63 64 65 65 66 68 70 73 74
94 93 91 89 88 85 82 80 76 72 68 63 59 55 50 47 44 42 40 38 36 35 36 38 40 42 44 44 41 38 36 36 36 35 35 34 34 35 37 41 47 59 69 73 71 71 73 74 74 74 73 71 70 69 67 65 63 63 65 66 65 64 63 63 62 62 62 61 62 63 63 62 60 60 60 61 62 64 66 67 67 67 68 70 73
91 90 88 86 84 81 79 76 72 68 63 58 55 51 47 44 42 41 39 37 36 35 36 38 41 44 46 47 46 42 40 38 38 37 37 36 34 35 37 40 44 53 65 74 75 73 75 77 78 78 78 76 74 73 72 70 68 66 66 68 69 69 68 67 66 66 65 65 64 65 65 64 62 61 61 61 61 61 63 66 68 68 68 69 71
88 86 84 82 80 77 74 71 67 63 58 54 51 48 45 42 40 39 38 36 36 36 37 38 42 46 49 49 48 46 44 42 40 39 39 38 37 36 36 40 43 48 59 71 77 77 77 79 81 82 82 81 79 77 76 75 73 71 69 70 71 73 73 71 69 69 69 69 68 68 67 66 65 63 63 62 62 61 62 63 65 67 68 69 70
84 81 79 77 74 72 69 66 63 59 55 50 47 46 45 41 38 36 36 36 36 37 38 39 41 44 47 49 50 50 48 46 44 42 41 40 39 38 37 39 42 46 53 64 75 80 80 80 82 84 85 85 83 81 80 79 78 77 74 73 73 75 77 76 74 73 72 72 72 72 71 70 69 67 66 65 64 63 63 63 64 66 67 68 70
78 75 73 71 69 67 64 61 58 55 52 48 45 43 42 41 38 35 34 34 35 36 38 39 40 41 42 46 51 53 54 52 49 47 45 43 42 42 40 40 41 45 49 56 68 78 83 83 83 85 88 89 88 86 84 82 82 81 80 77 76 77 79 80 80 78 76 75 75 75 75 74 73 72 71 69 68 67 66 66 66 67 68 70 71
71 69 68 66 64 61 58 56 53 51 50 48 45 42 39 38 38 36 35 34 34 35 37 39 40 41 42 44 48 52 55 55 53 52 51 49 47 45 44 43 42 44 48 52 60 71 81 86 86 86 89 91 92 91 89 87 85 85 84 83 81 80 81 83 84 84 82 81 79 79 78 78 78 78 77 75 73 72 72 72 71 70 71 72 74
65 64 62 60 58 55 53 51 50 49 48 47 46 42 38 36 35 36 35 35 36 36 37 38 40 42 43 43 46 50 54 57 57 57 57 56 53 50 48 47 45 46 48 51 56 63 73 83 89 89 89 91 93 94 94 92 90 88 88 87 86 85 84 85 86 87 87 87 86 84 83 82 82 82 82 81 80 77 76 76 77 77 76 76 76
59 57 55 54 52 50 49 48 48 48 48 47 45 43 39 36 35 34 34 35 37 38 39 40 40 41 42 43 45 48 52 55 58 59 58 57 55 53 51 50 49 49 49 52 55 59 65 75 85 91 92 92 94 96 97 96 95 93 92 91 91 89 88 88 88 88 89 90 90 91 89 88 87 86 86 86 86 85 83 81 80 80 80 81 80
52 50 49 48 47 47 47 48 48 48 48 47 44 42 40 38 36 34 33 34 35 37 39 40 41 42 43 44 44 46 48 50 53 55 55 55 55 54 53 52 53 53 52 52 55 59 62 67 76 86 93 96 96 96 98 99 99 98 96 95 95 95 94 93 92 91 91 91 92 93 94 94 93 92 91 90 90 90 90 89 87 85 83 83 84
46 45 45 45 45 46 47 48 49 48 47 45 43 42 41 39 37 35 34 34 34 35 36 38 40 41 42 44 44 45 46 47 49 51 53 54 54 54 54 54 54 55 55 54 54 58 61 65 69 76 86 94 98 99 99 100 101 102 101 100 99 99 99 98 97 96 95 95 94 95 95 96 97 97 97 96 94 93 94 95 95 94 92 89 88
43 43 43 44 45 46 48 48 48 47 45 44 42 41 39 38 37 36 34 34 34 34 34 36 37 38 39 41 42 43 43 45 46 47 49 50 51 52 52 52 53 55 56 56 56 56 59 63 66 69 75 84 93 99 102 102 103 103 104 104 103 103 102 102 102 101 100 100 99 98 98 99 99 100 100 100 100 99 98 97 98 99 99 98 97
42 43 44 45 46 46 47 46 45 44 43 41 39 38 37 36 36 35 34 33 33 33 33 34 35 36 37 38 39 40 41 41 42 43 44 45 46 47 48 50 52 53 55 56 57 57 57 59 63 66 70 74 82 91 99 104 106 106 106 107 107 107 107 106 106 106 105 105 104 104 103 103 103 103 103 103 104 103 103 102 102 102 103 103 103
43 44 44 45 45 44 43 42 41 40 38 37 36 35 34 34 34 34 33 33 32 32 32 33 34 35 36 36 37 38 39 40 40 41 41 42 43 44 45 47 48 50 52 54 56 57 58 58 60 63 66 69 73 79 86 95 103 107 109 109 109 110 110 111 111 111 110 109 109 108 108 108 108 107 107 107 107 107 107 107 107 107 107 107 107
Wind_Direction
312 310 308 307 306 305 305 305 304 305 305 305 305 305 305 305 304 305 306 307 308 308 308 308 307 307 308 308 307 307 306 305 304 303 301 298 295 292 287 279 268 260 255 251 246 241 237 235 234 235 236 236 235 235 236 237 237 237 238 239 237 236 235 233 231 230 230 231 234 234 233 236 237 236 237 238 238 236 236 240 241 240 238 235 231
313 311 310 308 307 307 306 306 305 305 306 306 305 305 305 305 305 306 307 308 308 308 308 308 308 308 308 308 307 307 307 306 306 305 303 301 298 295 290 282 270 259 254 250 247 242 238 235 234 234 234 234 234 234 234 235 237 237 238 238 237 236 235 233 231 232 230 229 231 231 231 234 236 235 235 236 236 234 235 238 238 237 236 233 230
314 312 311 310 309 308 307 306 306 306 306 306 305 305 305 306 306 307 308 308 309 309 309 308 308 308 308 308 308 307 307 307 307 306 305 303 301 298 293 285 272 260 253 249 246 243 238 235 234 234 233 233 232 232 232 233 235 236 237 238 237 235 235 233 231 231 231 228 228 230 230 232 236 235 234 234 234 233 234 235 236 235 233 231 230
314 313 311 310 309 308 307 306 306 306 306 306 305 305 305 306 307 308 308 309 310 310 310 309 309 309 309 309 309 308 308 308 308 307 305 304 302 299 295 287 276 263 254 248 245 242 239 235 234 234 233 231 231 231 230 231 232 234 235 237 236 234 234 233 231 230 230 228 227 229 231 231 233 234 233 233 233 232 232 234 235 234 230 229 229
315 313 312 310 309 307 307 306 306 306 306 305 305 305 306 306 307 308 309 309 310 310 310 310 310 310 310 310 310 310 309 309 309 308 306 305 304 301 296 289 279 266 256 249 244 241 239 236 233 233 232 230 229 229 229 229 231 231 232 235 236 234 233 231 229 228 229 229 227 228 230 231 231 233 232 232 232 231 232 234 235 233 230 228 227
315 313 311 310 308 307 306 306 306 306 306 305 305 305 306 306 307 308 309 309 310 310 310 310 311 311 312 312 312 312 311 311 310 309 307 306 304 301 297 290 280 268 258 251 246 241 238 236 234 232 230 229 228 228 228 228 229 230 231 233 235 234 232 230 229 228 228 230 230 227 228 230 230 230 231 231 231 231 231 233 234 233 230 227 227
315 313 311 309 308 307 306 306 306 306 305 304 304 305 305 306 306 307 309 310 310 310 311 312 313 313 313 313 314 313 313 313 312 311 309 307 304 301 296 290 281 271 261 253 247 242 238 236 234 231 229 228 226 227 227 226 227 228 229 231 233 234 232 230 231 231 230 231 231 228 228 230 230 229 230 231 231 231 231 232 233 232 229 227 228
314 312 311 310 308 307 306 306 306 305 304 303 303 304 304 305 306 307 309 310 311 312 313 314 314 315 315 315 315 315 315 314 314 312 310 307 304 300 295 289 281 272 262 254 247 242 238 235 233 231 229 227 225 225 225 224 224 225 227 230 231 232 232 231 232 233 232 231 231 229 227 228 231 231 230 231 231 230 230 230 231 231 229 227 227
313 312 311 309 308 307 306 306 305 303 302 302 303 303 304 305 306 308 309 311 313 314 315 315 316 316 315 315 316 316 316 315 315 314 311 307 303 299 294 287 280 273 264 256 249 243 239 235 233 231 229 226 225 224 223 222 221 221 223 227 229 230 231 231 231 233 233 231 230 229 227 227 230 232 231 231 230 230 230 230 231 231 229 227 226
313 312 310 309 308 307 305 304 303 302 302 302 302 302 304 305 306 308 311 313 315 316 316 316 316 316 316 316 316 316 316 316 315 314 310 306 302 298 292 285 278 272 265 257 250 244 240 236 233 231 229 227 225 224 223 222 221 220 221 223 226 228 229 230 229 231 232 230 229 229 228 226 228 231 232 232 231 230 231 231 231 230 228 227 226
312 311 310 308 307 306 304 303 302 302 302 302 302 303 304 305 307 310 313 315 316 316 316 316 316 316 316 315 316 317 317 316 315 312 308 304 300 296 290 283 276 271 264 258 251 245 240 237 234 230 228 226 224 223 222 222 220 220 221 222 224 226 228 229 228 228 229 229 227 227 228 227 227 229 232 233 232 230 230 231 230 229 229 228 227
311 310 309 308 307 305 303 302 302 302 302 302 303 304 305 307 310 313 315 315 315 315 316 316 316 317 316 316 316 317 317 316 315 311 306 302 298 294 288 280 274 269 264 257 251 246 241 236 234 231 227 225 224 223 222 221 220 219 221 222 223 225 227 228 228 228 227 227 226 226 227 227 227 228 231 233 233 230 229 229 229 228 228 228 227
310 309 308 307 305 304 303 302 302 302 303 303 303 304 306 309 312 314 315 315 315 315 316 316 317 317 316 316 317 318 317 317 314 309 304 301 297 291 284 277 271 266 262 256 250 246 242 237 234 231 227 224 224 224 223 221 220 219 220 221 222 223 225 226 227 227 226 225 224 225 226 227 227 227 230 233 234 231 228 228 227 226 226 227 227
309 308 307 305 304 303 303 303 303 303 303 303 304 305 307 310 312 313 314 314 315 315 316 316 316 316 316 316 317 318 318 316 312 307 303 299 295 288 280 273 267 262 259 255 250 246 242 238 234 231 228 224 223 223 223 222 220 219 219 220 221 222 224 225 225 225 224 223 223 223 224 226 227 227 229 231 233 232 229 227 226 225 225 226 227
308 307 305 304 304 304 304 303 303 303 303 303 305 307 309 311 312 313 313 314 315 315 315 316 316 316 316 316 317 318 317 315 310 306 302 298 293 285 275 268 262 258 255 253 250 247 243 239 235 231 227 223 222 222 222 221 220 219 219 219 220 221 223 224 225 224 223 222 222 222 223 225 227 228 228 228 230 231 228 225 225 224 223 225 226
306 305 304 304 304 304 303 303 302 302 303 304 306 308 310 311 312 313 313 314 314 315 315 316 316 316 316 316 317 318 317 313 309 305 301 296 290 280 270 263 257 252 249 248 248 247 244 240 235 230 226 222 220 220 220 220 219 218 218 219 219 220 222 223 224 224 223 222 222 223 223 224 226 228 228 226 227 229 227 225 224 223 222 223 226
306 304 304 304 303 303 303 302 302 302 304 305 307 309 310 311 312 313 313 313 314 314 315 316 317 316 315 316 317 319 317 312 308 305 300 294 286 275 264 257 251 245 241 240 242 244 244 241 235 230 224 220 218 218 219 219 219 218 217 217 218 219 221 222 223 223 223 223 223 224 224 225 226 228 227 224 224 227 227 225 224 223 222 224 226
305 304 303 303 303 302 302 302 303 304 306 307 308 309 311 311 312 313 313 313 314 315 315 316 317 316 315 315 316 317 316 311 307 304 298 291 281 269 259 251 245 238 232 231 232 236 241 242 238 231 224 219 216 216 217 218 218 217 217 217 217 218 220 220 221 221 222 223 223 224 226 226 226 228 225 221 222 225 226 225 225 224 223 224 227
305 304 303 303 303 302 303 304 305 306 307 307 309 310 311 311 312 313 313 313 314 315 315 316 316 315 314 313 313 314 314 310 306 302 295 287 276 264 252 245 239 230 223 221 221 223 232 240 240 234 226 220 216 214 215 216 217 216 216 216 217 218 219 219 219 220 221 222 223 224 225 225 225 225 222 218 219 223 225 225 225 224 223 225 227
304 303 303 303 303 303 304 305 306 306 307 308 309 310 310 311 312 312 312 313 314 314 315 315 314 313 311 310 310 311 311 308 304 299 291 281 271 258 245 238 232 222 214 212 213 215 221 231 238 236 228 222 217 214 214 215 215 215 215 216 217 218 219 219 219 220 220 222 223 224 224 224 223 222 220 217 218 222 224 226 226 224 223 225 227
303 303 303 303 303 304 304 305 306 306 307 308 308 309 310 311 312 312 312 313 314 314 314 313 313 311 310 308 307 308 308 306 302 294 284 274 263 251 240 231 223 214 207 205 207 209 212 221 231 232 226 221 218 216 214 214 214 215 215 216 217 218 219 219 219 220 220 222 223 223 223 222 222 220 218 217 219 221 223 225 226 225 224 225 226
303 303 302 303 303 304 304 305 306 306 307 307 308 309 310 311 312 312 312 313 313 313 313 312 312 310 308 307 306 306 306 304 298 288 278 267 255 244 234 223 214 207 202 199 198 199 203 213 224 226 219 214 214 216 216 214 214 214 214 215 217 218 218 219 220 220 221 222 222 221 220 220 220 218 217 217 219 220 222 224 226 226 226 225 226
301 301 301 302 303 304 304 304 305 305 306 307 308 309 310 311 312 312 313 313 313 313 313 312 311 309 307 306 304 303 303 300 292 281 272 260 248 237 226 215 207 203 197 191 188 189 196 210 220 221 214 208 206 211 215 215 214 214 214 215 216 217 218 219 220 221 221 222 221 220 219 220 220 218 217 218 219 220 221 223 225 226 226 226 226
300 300 301 302 302 303 303 304 304 305 306 307 309 310 311 312 312 313 313 313 313 313 312 311 310 309 307 304 301 297 294 290 283 274 264 251 240 230 219 208 201 197 191 185 182 183 192 207 217 215 205 199 198 203 212 217 216 214 214 214 216 217 218 218 220 220 219 219 220 220 220 220 221 220 218 218 219 221 222 222 223 224 225 225 226
300 300 301 301 302 303 303 304 304 305 307 308 310 311 311 312 312 312 313 313 312 312 312 310 308 307 306 302 297 293 290 286 279 270 257 243 232 224 214 203 196 192 187 182 181 182 190 204 213 208 193 185 187 193 203 216 220 217 215 215 215 217 218 218 220 220 218 217 219 221 222 222 222 222 221 220 220 221 222 223 223 223 224 224 225
299 300 301 301 302 303 303 303 304 306 307 309 310 311 312 312 312 312 312 312 312 312 311 309 307 305 303 299 295 291 289 285 275 264 253 239 226 218 209 199 193 191 186 181 180 183 191 203 208 198 184 178 181 190 193 202 216 220 217 216 215 216 217 218 219 220 219 219 220 222 223 224 223 222 222 222 220 221 223 223 223 223 223 223 224
299 300 301 301 302 302 302 303 305 306 308 309 310 311 312 312 312 312 312 312 312 311 310 307 305 302 299 295 292 289 285 278 268 259 249 236 223 213 204 196 193 190 185 182 182 184 193 202 198 184 177 178 184 194 195 189 196 211 217 216 216 216 217 218 218 220 220 220 222 223 224 225 224 222 221 222 220 220 222 223 223 223 223 223 224
299 300 300 301 301 302 302 304 306 307 308 309 310 311 312 312 312 312 311 311 310 309 308 305 302 299 295 292 289 286 283 277 266 256 246 233 220 210 203 196 193 190 186 184 184 185 191 196 189 179 179 185 189 199 199 189 186 196 205 210 213 215 218 219 218 219 220 220 222 224 224 223 223 222 221 221 221 221 222 223 223 223 223 223 224
299 299 300 300 301 302 303 305 306 307 309 310 310 312 312 312 312 312 310 310 309 308 305 302 298 295 292 289 285 283 281 276 264 251 242 231 218 209 203 198 194 191 189 187 187 188 190 190 184 181 186 191 194 202 202 192 187 190 192 196 203 208 215 219 219 219 219 219 220 223 224 223 224 224 222 221 222 222 223 224 224 224 223 223 225
299 299 300 300 301 303 304 305 306 307 308 309 310 311 311 311 312 311 310 309 309 307 303 298 294 292 290 286 283 280 277 273 262 249 239 229 217 208 204 200 195 192 192 191 191 192 190 186 184 186 191 194 196 200 201 196 192 190 188 191 197 200 206 215 218 218 219 218 219 223 226 226 226 226 225 224 224 224 225 225 225 225 224 223 224
299 299 300 301 302 303 304 305 306 307 308 309 310 311 311 311 311 311 309 309 308 305 301 295 290 287 286 283 280 276 273 268 261 249 238 228 216 208 205 203 197 193 194 195 196 195 190 186 187 191 194 196 197 198 199 199 196 192 189 192 197 199 201 208 215 216 217 217 216 219 224 226 227 228 227 226 226 227 226 226 227 227 226 225 225
299 299 300 301 302 303 303 304 305 307 308 309 310 310 310 310 310 309 308 307 305 303 299 292 285 282 281 278 275 273 269 264 259 251 240 229 218 209 206 205 199 193 193 198 199 195 190 187 189 192 194 196 199 199 200 201 200 196 192 192 197 201 202 207 213 214 214 214 213 213 218 222 224 227 228 227 227 228 228 228 229 229 229 228 228
298 299 300 301 301 302 303 304 305 307 308 308 309 309 310 309 309 308 306 302 297 295 293 288 282 278 277 274 271 270 267 262 257 252 243 233 221 211 207 206 201 194 193 199 199 196 192 190 191 193 194 196 199 200 201 203 204 202 196 193 196 201 204 207 213 214 212 211 210 210 214 217 219 223 226 227 227 228 229 229 230 230 229 229 229
298 299 299 300 301 302 303 304 305 306 307 308 308 309 309 308 307 305 302 295 289 285 284 281 277 273 272 270 267 266 266 262 258 253 245 236 226 214 209 208 203 196 194 198 199 196 195 193 193 194 195 197 199 200 201 203 205 205 202 198 198 201 204 208 213 215 215 214 213 211 213 216 219 222 225 227 227 228 228 229 230 230 229 229 229
298 298 299 300 300 301 302 303 304 305 306 307 308 308 307 306 304 302 297 292 285 279 275 272 268 265 266 267 266 265 264 262 259 255 248 239 230 219 211 209 206 199 196 198 199 197 196 196 195 196 197 197 199 200 201 202 204 206 206 204 203 204 206 208 212 214 215 217 219 219 218 218 219 221 225 228 229 229 228 228 229 229 230 230 230
297 297 298 299 300 301 302 303 304 305 306 307 307 307 305 304 303 300 296 292 285 275 268 263 259 257 258 261 263 264 264 262 258 256 251 243 236 226 216 211 208 203 199 199 200 199 198 197 196 198 200 199 199 200 202 202 203 204 206 207 206 207 208 209 211 214 215 216 219 223 224 223 222 220 221 224 227 229 229 229 228 228 230 231 231
296 297 297 298 299 300 301 302 303 304 306 306 306 305 304 303 301 299 295 290 281 272 264 257 253 251 252 254 257 259 261 261 259 256 252 246 239 232 223 215 210 206 202 201 201 201 200 198 198 200 202 202 201 201 202 203 202 202 205 207 207 208 210 211 211 214 216 217 218 221 224 226 227 225 223 222 224 226 229 229 229 228 229 231 232
295 296 296 297 298 299 300 302 303 304 305 305 304 303 302 301 299 296 291 284 275 267 260 254 249 247 247 249 251 252 254 257 258 256 253 249 243 236 229 221 215 209 204 203 203 202 202 201 199 200 203 204 203 203 204 205 204 202 203 205 208 209 211 213 213 215 217 218 218 219 221 225 228 229 229 227 225 225 227 229 229 228 229 231 232
294 295 296 297 298 299 300 301 302 303 304 303 302 301 300 300 297 292 286 280 273 264 256 251 248 246 245 244 245 246 249 251 253 254 254 251 246 240 234 228 221 213 208 205 204 204 204 203 202 202 203 205 206 205 206 207 207 205 204 205 207 210 211 213 214 216 217 218 219 219 221 223 225 228 230 231 229 227 227 227 228 228 228 229 231
294 294 295 296 297 298 299 300 301 302 302 301 300 299 299 297 293 287 283 278 271 263 255 247 244 244 243 242 241 241 244 247 249 252 254 253 249 244 238 232 227 219 213 209 207 206 206 206 204 203 204 206 208 208 208 208 209 209 207 206 207 209 211 213 214 215 216 218 219 220 221 222 224 226 229 231 232 231 229 227 227 227 227 228 229
293 294 295 295 296 297 298 300 300 300 300 299 298 297 296 294 290 285 280 273 266 261 256 249 244 243 243 241 239 240 242 244 246 249 251 253 251 248 243 237 231 225 218 213 210 208 208 208 207 206 206 207 209 210 210 210 210 212 211 210 208 209 212 213 214 214 216 217 219 220 222 223 224 225 226 228 231 232 232 229 227 227 227 228 229
292 293 294 295 295 297 298 299 299 298 297 296 296 296 295 292 286 281 276 270 264 260 257 254 251 249 247 243 240 239 241 243 246 248 249 250 251 251 248 243 237 231 224 219 215 212 210 210 209 209 208 208 210 211 212 212 212 212 213 213 211 211 212 214 215 215 216 217 219 220 221 222 223 224 225 225 227 230 232 231 229 227 226 228 229
292 293 293 294 295 296 297 297 297 297 296 295 295 295 294 291 286 281 275 269 265 262 260 258 257 256 252 247 243 241 241 242 245 247 249 249 249 250 250 247 242 236 230 224 219 216 214 212 212 211 211 211 211 213 214 214 214 214 214 215 214 213 213 215 216 217 217 217 218 219 220 221 222 224 224 225 225 226 228 230 230 229 228 227 229
291 292 293 293 294 295 296 296 295 295 295 295 295 294 291 288 286 284 278 271 266 262 259 258 256 256 253 249 245 243 242 241 244 248 251 250 249 248 249 249 247 242 236 230 224 221 218 216 215 214 213 213 213 214 215 216 217 216 216 216 216 216 215 215 216 218 219 219 219 220 220 221 222 223 224 224 225 225 225 227 228 230 230 230 230
291 291 292 293 293 294 294 294 294 294 294 295 295 294 290 285 283 282 279 274 268 264 261 258 256 254 253 249 245 242 241 241 244 249 252 252 250 247 247 249 249 246 242 236 230 225 222 220 218 217 216 216 216 216 217 218 219 219 219 218 218 217 216 216 217 218 220 221 222 222 222 222 223 223 224 225 225 225 225 225 226 228 230 232 233
290 290 291 291 292 292 292 292 292 293 294 294 294 292 289 286 282 279 275 271 268 266 263 261 259 257 255 252 249 245 243 244 247 250 252 253 251 248 247 248 248 248 245 241 235 230 226 223 221 220 219 218 218 218 219 219 220 220 221 221 220 219 218 218 218 219 220 222 223 224 225 224 224 224 225 226 226 226 226 226 226 226 228 230 232
289 290 290 290 291 291 291 292 292 292 293 293 292 291 289 287 284 280 275 270 267 265 264 263 262 261 259 257 255 252 250 249 250 251 252 253 253 251 250 249 247 246 246 244 240 235 231 227 224 223 222 221 221 220 220 221 221 222 222 223 223 223 222 221 220 221 221 222 224 225 226 226 227 227 227 227 227 228 228 228 228 228 228 228 229
289 289 290 290 291 291 291 291 292 292 292 292 291 290 289 288 285 281 277 273 269 267 265 264 263 262 261 260 259 258 256 254 253 253 253 253 253 252 251 249 246 245 245 245 243 240 236 232 228 226 224 223 223 222 222 222 222 223 224 224 225 225 225 225 224 224 224 224 225 226 227 228 228 229 229 229 229 229 229 230 230 230 230 229 229
289 290 290 291 291 291 291 291 291 292 291 291 291 289 288 286 284 282 279 277 273 270 268 266 264 263 262 261 261 261 260 259 258 257 255 254 253 252 251 249 247 245 245 246 245 244 240 237 234 231 228 226 225 225 224 224 224 224 225 225 226 226 227 227 227 227 227 227 227 227 228 229 230 230 231 231 231 231 231 231 232 232 232 232 232
290 291 291 291 290 290 290 290 290 290 290 290 289 288 286 284 283 282 281 279 277 274 272 270 268 266 264 263 261 261 260 260 260 259 258 256 255 253 252 250 248 247 246 246 246 246 244 241 238 235 233 231 229 228 227 226 226 226 226 226 227 227 227 228 228 229 229 229 229 229 229 230 231 231 232 232 232 233 233 233 233 233 234 234 234
291 291 290 290 289 289 289 289 289 289 289 288 287 286 284 283 283 282 282 280 279 276 274 272 271 269 267 266 264 262 261 260 260 259 258 256 255 253 252 250 249 248 247 246 246 246 246 244 242 239 237 236 234 232 231 229 228 228 228 228 228 228 229 229 229 229 230 230 230 231 231 231 232 232 233 233 234 234 234 234 234 234 235 235 236
Height
10855 10852 10850 10846 10843 10840 10837 10835 10832 10830 10826 10823 10820 10818 10815 10812 10809 10807 10805 10802 10800 10796 10792 10787 10783 10779 10776 10771 10767 10763 10759 10756 10755 10753 10750 10748 10746 10744 10741 10738 10735 10734 10734 10737 10741 10744 10747 10751 10754 10758 10764 10771 10778 10784 10790 10796 10802 10808 10813 10819 10825 10831 10836 10842 10846 10846 10849 10854 10857 10861 10865 10868 10871 10873 10875 10877 10878 10881 10883 10884 10885 10887 10889 10890 10892
10849 10846 10843 10840 10837 10833 10830 10828 10825 10823 10820 10817 10814 10811 10808 10805 10803 10800 10798 10796 10793 10789 10785 10780 10776 10772 10768 10764 10760 10755 10751 10747 10744 10742 10738 10736 10735 10733 10730 10727 10724 10723 10722 10724 10728 10732 10736 10739 10742 10746 10753 10760 10767 10774 10781 10786 10791 10798 10804 10811 10819 10824 10828 10834 10839 10841 10844 10848 10851 10855 10860 10863 10866 10867 10869 10871 10873 10876 10878 10880 10882 10883 10885 10887 10888
10843 10839 10836 10833 10830 10827 10824 10821 10818 10816 10813 10811 10808 10805 10801 10799 10796 10793 10790 10788 10786 10782 10778 10773 10769 10765 10761 10757 10752 10748 10743 10739 10735 10731 10727 10725 10723 10721 10718 10716 10713 10712 10711 10712 10715 10720 10724 10728 10731 10735 10742 10750 10757 10764 10771 10776 10782 10788 10796 10804 10811 10815 10820 10827 10832 10835 10837 10841 10846 10850 10854 10858 10860 10862 10865 10866 10868 10871 10873 10875 10878 10879 10881 10883 10885
10837 10833 10830 10826 10823 10820 10817 10814 10811 10809 10806 10804 10801 10798 10795 10792 10789 10786 10783 10780 10778 10775 10771 10766 10762 10757 10753 10749 10744 10740 10736 10731 10727 10722 10717 10714 10711 10709 10706 10705 10703 10701 10700 10701 10704 10708 10713 10717 10721 10725 10732 10739 10746 10754 10761 10766 10772 10779 10787 10794 10800 10806 10813 10819 10825 10829 10832 10836 10841 10844 10848 10852 10855 10857 10860 10862 10864 10866 10869 10871 10873 10875 10877 10879 10881
10831 10827 10823 10820 10817 10814 10810 10807 10805 10802 10799 10796 10793 10790 10788 10785 10782 10780 10776 10773 10770 10767 10763 10759 10754 10749 10745 10740 10735 10731 10727 10722 10717 10712 10708 10704 10700 10697 10695 10693 10692 10691 10690 10691 10693 10697 10702 10707 10711 10716 10722 10729 10736 10743 10750 10757 10763 10771 10778 10784 10791 10798 10805 10812 10818 10822 10826 10830 10834 10838 10843 10847 10850 10852 10855 10857 10859 10861 10864 10867 10868 10870 10873 10875 10878
10825 10821 10818 10814 10810 10807 10804 10801 10799 10796 10792 10789 10786 10783 10781 10778 10776 10773 10770 10766 10762 10759 10755 10751 10746 10741 10736 10731 10726 10721 10717 10712 10707 10701 10697 10694 10690 10687 10684 10682 10682 10681 10681 10682 10684 10687 10692 10696 10701 10706 10712 10719 10726 10732 10739 10748 10755 10762 10769 10775 10782 10790 10797 10804 10809 10814 10819 10823 10826 10832 10837 10841 10844 10847 10849 10852 10854 10856 10859 10862 10864 10866 10868 10871 10873
10819 10815 10812 10808 10804 10801 10798 10795 10793 10790 10786 10782 10779 10777 10774 10771 10768 10766 10762 10758 10754 10750 10746 10741 10736 10731 10727 10722 10717 10711 10707 10702 10697 10691 10686 10684 10680 10677 10674 10672 10671 10672 10672 10673 10674 10678 10682 10686 10690 10695 10701 10709 10717 10722 10730 10739 10747 10754 10761 10766 10773 10781 10789 10794 10799 10804 10810 10815 10819 10825 10831 10835 10839 10842 10845 10847 10849 10851 10854 10857 10858 10860 10863 10866 10869
10812 10809 10805 10801 10798 10794 10791 10789 10786 10783 10779 10776 10773 10770 10767 10764 10761 10757 10754 10749 10744 10740 10735 10731 10726 10721 10716 10712 10707 10702 10697 10692 10686 10681 10676 10672 10670 10667 10665 10662 10661 10662 10663 10664 10665 10668 10671 10676 10680 10685 10691 10700 10708 10714 10721 10730 10738 10746 10752 10757 10764 10771 10778 10784 10789 10795 10801 10806 10812 10818 10825 10830 10833 10837 10839 10842 10844 10846 10847 10850 10853 10857 10860 10863 10866
10806 10802 10799 10795 10792 10788 10785 10782 10779 10776 10773 10770 10766 10763 10760 10757 10753 10749 10744 10739 10734 10729 10724 10720 10715 10710 10705 10701 10697 10692 10687 10681 10676 10671 10665 10661 10659 10658 10656 10653 10652 10652 10654 10655 10657 10659 10662 10666 10670 10675 10682 10689 10696 10704 10712 10719 10726 10734 10741 10747 10754 10761 10767 10774 10781 10786 10792 10798 10804 10811 10818 10823 10827 10830 10834 10836 10837 10838 10841 10846 10851 10854 10857 10859 10862
10799 10796 10792 10789 10785 10782 10779 10775 10773 10770 10767 10763 10759 10756 10753 10750 10745 10740 10734 10729 10724 10719 10714 10709 10704 10699 10694 10690 10687 10683 10677 10671 10666 10661 10656 10651 10648 10648 10647 10645 10643 10644 10645 10646 10649 10651 10653 10657 10661 10667 10673 10679 10687 10696 10704 10710 10716 10722 10729 10737 10744 10750 10757 10765 10772 10777 10783 10790 10797 10803 10810 10816 10821 10824 10828 10830 10831 10834 10839 10844 10847 10850 10853 10855 10858
10792 10789 10785 10782 10779 10776 10772 10769 10766 10763 10760 10756 10751 10748 10745 10741 10736 10730 10725 10719 10714 10709 10704 10699 10694 10689 10683 10679 10677 10673 10668 10662 10656 10651 10646 10642 10639 10639 10639 10637 10636 10635 10636 10639 10641 10643 10646 10649 10653 10658 10664 10671 10678 10686 10693 10701 10708 10714 10720 10728 10735 10741 10748 10756 10762 10768 10775 10782 10789 10796 10802 10809 10814 10818 10822 10824 10827 10831 10835 10838 10841 10845 10849 10851 10854
10784 10781 10778 10775 10772 10769 10765 10762 10759 10756 10753 10748 10744 10740 10736 10731 10726 10721 10715 10710 10705 10700 10695 10690 10685 10679 10674 10669 10666 10663 10658 10653 10647 10641 10637 10634 10632 10631 10630 10629 10628 10628 10629 10632 10634 10636 10638 10642 10645 10650 10656 10662 10669 10675 10682 10691 10700 10706 10712 10719 10726 10733 10740 10748 10755 10761 10768 10775 10781 10788 10795 10800 10805 10811 10816 10819 10822 10825 10828 10832 10836 10841 10844 10847 10850
10777 10774 10771 10767 10764 10761 10758 10755 10752 10749 10745 10741 10737 10732 10727 10723 10718 10712 10707 10702 10696 10691 10686 10682 10676 10670 10665 10660 10656 10652 10648 10643 10637 10631 10627 10625 10624 10624 10623 10622 10622 10622 10623 10625 10628 10630 10632 10635 10638 10643 10649 10655 10660 10667 10675 10684 10692 10699 10705 10711 10718 10725 10732 10739 10746 10753 10760 10766 10773 10780 10787 10792 10797 10804 10809 10812 10816 10820 10823 10827 10831 10835 10839 10843 10846
10769 10766 10763 10760 10757 10754 10751 10748 10745 10741 10738 10734 10730 10725 10720 10715 10710 10705 10699 10694 10688 10683 10677 10673 10667 10661 10655 10650 10646 10642 10638 10633 10628 10622 10618 10617 10616 10617 10616 10616 10616 10616 10617 10619 10622 10624 10626 10628 10632 10637 10642 10648 10654 10660 10669 10677 10685 10693 10699 10705 10712 10718 10724 10731 10738 10745 10752 10758 10765 10773 10779 10784 10789 10795 10801 10806 10811 10814 10818 10822 10826 10830 10835 10839 10843
10762 10758 10756 10752 10749 10747 10744 10741 10738 10734 10730 10726 10722 10717 10713 10708 10703 10697 10691 10686 10680 10675 10669 10664 10659 10652 10645 10641 10637 10634 10629 10624 10619 10615 10611 10609 10610 10610 10610 10610 10611 10611 10612 10614 10616 10618 10620 10623 10626 10631 10636 10642 10648 10654 10661 10669 10677 10684 10692 10699 10705 10712 10718 10725 10731 10738 10744 10750 10757 10763 10769 10775 10780 10786 10793 10800 10805 10808 10811 10816 10822 10826 10831 10835 10839
10755 10751 10747 10744 10742 10739 10737 10734 10731 10727 10722 10718 10714 10710 10705 10700 10695 10689 10683 10678 10673 10667 10662 10656 10650 10643 10636 10632 10629 10627 10622 10616 10611 10608 10604 10603 10604 10604 10605 10605 10606 10607 10608 10610 10612 10614 10615 10618 10621 10625 10630 10636 10641 10646 10652 10660 10668 10676 10684 10692 10699 10706 10713 10718 10724 10731 10737 10743 10749 10755 10761 10768 10773 10780 10787 10793 10798 10801 10804 10810 10816 10821 10825 10829 10831
10747 10743 10740 10737 10734 10732 10729 10726 10723 10719 10714 10709 10705 10702 10697 10692 10687 10681 10675 10670 10665 10660 10655 10649 10642 10634 10627 10622 10620 10619 10615 10609 10604 10601 10598 10597 10598 10599 10600 10600 10601 10603 10604 10606 10608 10610 10612 10613 10616 10620 10625 10630 10635 10640 10646 10653 10661 10669 10677 10685 10692 10699 10706 10711 10717 10725 10731 10737 10743 10748 10755 10762 10769 10774 10780 10786 10790 10795 10800 10805 10810 10814 10818 10822 10823
10738 10734 10732 10729 10727 10724 10721 10718 10714 10710 10706 10701 10697 10693 10688 10683 10679 10672 10666 10660 10656 10650 10646 10641 10634 10626 10619 10613 10611 10611 10608 10603 10599 10595 10592 10592 10593 10594 10595 10596 10597 10599 10601 10602 10605 10607 10609 10610 10613 10616 10620 10625 10630 10635 10641 10647 10655 10663 10671 10678 10686 10693 10698 10704 10711 10718 10724 10730 10736 10742 10749 10757 10763 10768 10773 10779 10785 10790 10795 10798 10802 10807 10813 10814 10814
10729 10725 10723 10721 10719 10715 10712 10709 10706 10702 10697 10693 10690 10685 10680 10675 10671 10665 10657 10652 10647 10642 10637 10633 10628 10621 10614 10607 10604 10603 10601 10597 10593 10589 10587 10586 10588 10590 10591 10592 10594 10596 10597 10599 10602 10604 10606 10608 10610 10613 10616 10621 10626 10631 10636 10642 10649 10658 10665 10673 10680 10685 10690 10698 10706 10712 10717 10724 10730 10736 10742 10750 10756 10761 10766 10772 10778 10784 10788 10791 10795 10802 10806 10807 10808
10721 10717 10714 10712 10710 10706 10704 10701 10698 10695 10690 10685 10682 10678 10672 10667 10663 10658 10651 10645 10640 10635 10630 10626 10621 10616 10610 10603 10598 10596 10594 10592 10588 10584 10582 10582 10583 10585 10587 10588 10590 10592 10594 10596 10599 10602 10604 10607 10608 10610 10613 10618 10622 10627 10632 10638 10645 10652 10660 10668 10673 10678 10685 10694 10701 10706 10711 10717 10723 10729 10736 10742 10749 10755 10760 10766 10772 10778 10782 10784 10788 10794 10798 10799 10802
10713 10709 10706 10704 10701 10698 10695 10693 10690 10687 10683 10678 10674 10670 10665 10660 10655 10650 10643 10637 10632 10627 10622 10617 10612 10608 10603 10598 10593 10589 10587 10585 10582 10579 10578 10577 10578 10581 10583 10584 10586 10589 10591 10594 10597 10600 10603 10605 10607 10609 10611 10615 10619 10624 10629 10634 10640 10648 10655 10662 10667 10673 10681 10688 10694 10699 10705 10711 10716 10723 10729 10736 10743 10749 10754 10759 10766 10772 10775 10778 10782 10787 10791 10794 10797
10706 10702 10699 10696 10693 10690 10687 10684 10682 10679 10675 10671 10666 10662 10657 10652 10646 10640 10634 10628 10623 10618 10612 10608 10604 10600 10595 10591 10586 10583 10581 10579 10577 10575 10573 10573 10574 10576 10579 10580 10583 10585 10588 10591 10595 10598 10601 10604 10605 10607 10609 10613 10617 10621 10625 10630 10636 10643 10650 10656 10662 10669 10676 10682 10687 10693 10699 10704 10710 10717 10723 10729 10736 10741 10746 10752 10757 10763 10767 10771 10775 10780 10784 10788 10792
10699 10695 10691 10688 10685 10682 10679 10676 10673 10670 10666 10663 10658 10653 10648 10642 10637 10631 10624 10618 10614 10608 10603 10598 10594 10591 10587 10583 10580 10578 10577 10575 10572 10570 10569 10569 10571 10573 10575 10576 10579 10582 10585 10589 10593 10596 10599 10602 10603 10605 10608 10611 10615 10618 10622 10627 10632 10638 10644 10651 10657 10663 10669 10675 10681 10687 10694 10700 10706 10711 10717 10722 10728 10734 10739 10744 10749 10755 10760 10764 10768 10773 10778 10781 10785
10690 10687 10683 10680 10677 10674 10671 10668 10664 10661 10657 10654 10649 10644 10638 10632 10626 10620 10614 10608 10602 10598 10594 10589 10585 10582 10579 10576 10573 10572 10572 10569 10566 10565 10565 10565 10567 10569 10571 10573 10576 10579 10583 10586 10590 10593 10597 10600 10602 10604 10607 10610 10613 10617 10621 10624 10628 10633 10639 10645 10651 10657 10664 10670 10676 10682 10689 10696 10701 10705 10710 10715 10721 10726 10732 10736 10741 10748 10753 10758 10762 10766 10770 10773 10778
10680 10678 10675 10672 10669 10666 10662 10658 10655 10651 10648 10645 10640 10633 10627 10621 10615 10609 10603 10598 10592 10588 10584 10580 10576 10573 10571 10569 10567 10565 10565 10563 10561 10560 10561 10561 10562 10565 10567 10569 10573 10576 10580 10584 10587 10591 10595 10598 10600 10602 10605 10608 10612 10616 10619 10622 10625 10630 10635 10640 10646 10653 10659 10665 10671 10677 10684 10689 10694 10699 10704 10709 10714 10721 10727 10731 10736 10742 10747 10750 10754 10757 10761 10766 10771
10669 10668 10666 10663 10660 10657 10652 10648 10646 10643 10640 10635 10630 10624 10617 10611 10605 10599 10593 10588 10583 10579 10575 10571 10568 10566 10564 10562 10560 10559 10559 10559 10557 10555 10556 10557 10558 10561 10564 10566 10570 10573 10577 10581 10585 10588 10592 10595 10598 10601 10603 10607 10611 10615 10618 10621 10624 10627 10631 10636 10642 10648 10654 10660 10665 10671 10678 10683 10687 10692 10697 10701 10707 10714 10719 10723 10729 10734 10737 10740 10744 10748 10752 10757 10761
10660 10658 10656 10653 10651 10647 10643 10639 10636 10634 10630 10625 10620 10615 10608 10601 10595 10588 10582 10578 10574 10570 10567 10563 10561 10559 10557 10555 10554 10553 10553 10553 10551 10550 10551 10553 10555 10558 10561 10563 10566 10570 10575 10578 10582 10585 10589 10592 10595 10599 10602 10605 10609 10613 10617 10620 10623 10626 10629 10633 10638 10643 10648 10654 10659 10665 10671 10676 10681 10686 10690 10695 10699 10704 10709 10713 10719 10723 10726 10730 10735 10739 10744 10749 10752
10651 10649 10646 10643 10640 10636 10633 10630 10627 10623 10620 10615 10610 10606 10599 10591 10585 10579 10573 10569 10566 10562 10559 10556 10553 10552 10551 10549 10548 10547 10547 10547 10547 10546 10547 10549 10551 10554 10557 10559 10562 10566 10571 10575 10578 10582 10586 10589 10592 10596 10599 10603 10608 10611 10614 10618 10621 10625 10628 10631 10636 10640 10644 10649 10655 10660 10665 10670 10675 10680 10685 10688 10692 10696 10700 10705 10709 10712 10716 10720 10725 10729 10734 10739 10743
10641 10640 10636 10632 10629 10625 10622 10620 10617 10612 10609 10605 10600 10596 10589 10581 10576 10571 10564 10560 10557 10554 10551 10548 10545 10544 10544 10544 10543 10542 10541 10541 10542 10542 10543 10545 10548 10550 10553 10555 10558 10562 10567 10571 10574 10577 10581 10585 10589 10593 10597 10601 10605 10608 10611 10614 10618 10622 10626 10630 10634 10638 10642 10646 10650 10655 10660 10665 10670 10674 10677 10682 10686 10689 10693 10697 10700 10703 10707 10711 10716 10720 10725 10730 10734
10631 10629 10626 10621 10618 10615 10612 10610 10607 10602 10598 10594 10591 10587 10580 10572 10567 10562 10555 10551 10549 10546 10543 10540 10538 10537 10538 10538 10537 10537 10537 10536 10537 10537 10539 10541 10543 10546 10549 10551 10554 10558 10562 10566 10570 10573 10577 10582 10585 10590 10594 10598 10602 10605 10608 10611 10615 10619 10623 10627 10631 10635 10639 10643 10647 10650 10654 10660 10665 10668 10671 10676 10679 10682 10685 10689 10692 10694 10698 10704 10708 10713 10718 10721 10725
10622 10619 10616 10612 10608 10605 10602 10600 10598 10594 10589 10584 10580 10577 10571 10564 10559 10555 10548 10543 10541 10539 10536 10534 10532 10531 10531 10532 10532 10533 10532 10532 10532 10533 10534 10536 10539 10541 10544 10547 10550 10554 10558 10562 10565 10569 10573 10577 10581 10586 10590 10594 10598 10601 10605 10608 10611 10615 10619 10624 10628 10632 10635 10639 10642 10645 10649 10653 10659 10663 10665 10669 10672 10674 10676 10679 10682 10685 10690 10697 10703 10707 10711 10715 10718
10613 10609 10606 10603 10599 10595 10592 10590 10588 10584 10580 10575 10569 10566 10562 10556 10552 10548 10543 10537 10533 10531 10530 10528 10526 10526 10526 10526 10527 10527 10528 10528 10528 10528 10529 10531 10534 10537 10540 10543 10546 10550 10553 10557 10561 10565 10569 10572 10576 10581 10586 10590 10594 10597 10601 10604 10608 10611 10615 10619 10623 10627 10631 10634 10637 10640 10643 10648 10653 10657 10659 10662 10665 10667 10668 10671 10673 10677 10682 10689 10694 10698 10703 10708 10712
10603 10599 10596 10593 10590 10586 10582 10579 10577 10574 10570 10566 10560 10556 10552 10548 10543 10540 10537 10532 10528 10525 10524 10523 10522 10521 10521 10522 10522 10522 10522 10523 10523 10524 10525 10526 10529 10532 10535 10538 10542 10545 10548 10552 10556 10560 10564 10567 10571 10576 10581 10585 10589 10593 10596 10600 10603 10607 10610 10613 10617 10621 10625 10628 10631 10634 10638 10642 10647 10651 10654 10656 10658 10660 10661 10663 10666 10670 10675 10680 10684 10688 10693 10698 10703
10592 10589 10586 10582 10579 10576 10572 10570 10567 10564 10560 10556 10551 10546 10542 10539 10536 10532 10529 10525 10522 10520 10518 10517 10517 10516 10516 10516 10517 10517 10518 10518 10518 10519 10520 10521 10524 10526 10529 10533 10536 10540 10543 10547 10550 10554 10558 10562 10566 10570 10575 10580 10584 10587 10591 10595 10598 10601 10605 10608 10612 10615 10619 10623 10626 10629 10633 10637 10641 10644 10647 10649 10651 10653 10655 10657 10660 10664 10668 10672 10676 10679 10683 10687 10692
10582 10578 10575 10571 10568 10566 10563 10560 10558 10554 10551 10547 10542 10537 10533 10531 10529 10526 10522 10519 10517 10515 10513 10513 10513 10512 10511 10511 10512 10512 10513 10513 10514 10514 10515 10516 10518 10521 10524 10527 10531 10534 10537 10541 10545 10548 10552 10556 10561 10564 10569 10574 10578 10582 10585 10589 10592 10596 10599 10603 10606 10610 10613 10617 10620 10623 10627 10631 10635 10637 10639 10642 10645 10647 10649 10651 10653 10656 10660 10664 10668 10671 10675 10678 10683
10571 10568 10564 10561 10558 10555 10553 10551 10548 10544 10541 10537 10534 10529 10525 10522 10520 10517 10514 10512 10510 10509 10508 10507 10507 10507 10506 10506 10506 10507 10508 10509 10509 10509 10510 10511 10513 10515 10518 10521 10525 10528 10532 10535 10539 10542 10545 10549 10554 10558 10562 10567 10571 10575 10579 10583 10586 10589 10593 10597 10600 10604 10607 10610 10614 10617 10621 10624 10628 10630 10632 10634 10637 10639 10642 10645 10647 10649 10652 10655 10659 10663 10667 10670 10674
10560 10557 10553 10550 10547 10545 10543 10540 10538 10535 10531 10527 10524 10520 10516 10513 10511 10509 10506 10504 10503 10502 10501 10502 10502 10502 10501 10501 10502 10502 10503 10503 10504 10504 10505 10506 10507 10509 10512 10515 10518 10522 10525 10529 10533 10536 10539 10542 10546 10550 10555 10560 10564 10568 10572 10575 10579 10582 10586 10590 10594 10597 10600 10604 10607 10610 10613 10616 10620 10623 10625 10627 10629 10632 10635 10637 10640 10642 10645 10648 10651 10655 10658 10661 10665
10549 10545 10542 10540 10537 10534 10532 10530 10528 10525 10522 10518 10514 10511 10508 10505 10503 10501 10499 10497 10496 10495 10495 10496 10496 10496 10496 10496 10497 10498 10498 10498 10498 10499 10500 10500 10502 10504 10506 10509 10512 10515 10519 10522 10526 10529 10532 10535 10539 10542 10546 10551 10556 10560 10563 10567 10570 10574 10578 10582 10585 10589 10593 10596 10599 10602 10605 10608 10611 10614 10617 10620 10622 10624 10626 10629 10631 10634 10637 10640 10643 10647 10650 10653 10656
10536 10533 10531 10529 10527 10524 10522 10519 10517 10515 10512 10508 10504 10502 10500 10498 10495 10493 10491 10490 10489 10489 10489 10489 10490 10490 10490 10491 10492 10492 10492 10492 10493 10493 10494 10495 10496 10498 10500 10502 10505 10509 10512 10515 10519 10522 10525 10528 10531 10534 10538 10542 10546 10550 10554 10558 10561 10565 10569 10573 10577 10580 10584 10587 10591 10594 10597 10599 10602 10605 10608 10611 10614 10616 10618 10620 10623 10626 10629 10631 10634 10638 10642 10644 10647
10524 10522 10520 10518 10516 10514 10511 10509 10507 10505 10503 10499 10495 10493 10492 10490 10487 10484 10483 10483 10483 10482 10482 10483 10483 10483 10483 10484 10485 10486 10486 10486 10487 10487 10488 10489 10491 10492 10493 10495 10498 10502 10505 10508 10511 10514 10517 10520 10523 10526 10529 10533 10537 10541 10545 10548 10552 10556 10560 10564 10568 10571 10575 10578 10582 10585 10587 10590 10593 10596 10599 10603 10606 10608 10610 10612 10615 10617 10620 10623 10626 10629 10632 10635 10638
10513 10511 10509 10508 10506 10504 10501 10499 10497 10495 10493 10490 10487 10485 10483 10482 10479 10477 10476 10476 10476 10475 10475 10476 10476 10476 10476 10477 10478 10479 10479 10480 10481 10481 10482 10483 10484 10486 10487 10488 10490 10493 10497 10501 10504 10506 10509 10512 10515 10518 10521 10524 10528 10531 10535 10539 10543 10546 10550 10554 10558 10562 10566 10569 10573 10576 10579 10582 10584 10587 10591 10594 10597 10600 10602 10604 10606 10609 10611 10615 10618 10620 10623 10626 10628
10502 10501 10499 10497 10495 10493 10491 10489 10487 10485 10483 10481 10479 10476 10474 10474 10473 10471 10469 10469 10469 10468 10468 10468 10469 10469 10469 10471 10472 10472 10473 10473 10474 10475 10476 10477 10478 10479 10480 10482 10483 10485 10489 10493 10496 10499 10501 10504 10507 10510 10513 10516 10519 10522 10526 10530 10533 10537 10540 10544 10548 10552 10556 10560 10563 10566 10570 10573 10576 10578 10582 10585 10587 10590 10593 10596 10598 10600 10603 10605 10608 10611 10614 10617 10619
10491 10490 10488 10486 10485 10483 10481 10479 10477 10474 10472 10471 10471 10468 10466 10464 10464 10464 10463 10462 10462 10461 10461 10461 10462 10462 10463 10464 10464 10465 10466 10466 10467 10468 10469 10470 10471 10472 10473 10474 10476 10477 10480 10484 10488 10491 10494 10497 10499 10502 10505 10507 10510 10513 10517 10520 10524 10527 10530 10534 10538 10542 10546 10549 10553 10556 10559 10563 10566 10569 10572 10575 10578 10581 10584 10587 10589 10592 10594 10597 10599 10602 10605 10608 10610
10481 10479 10478 10476 10475 10473 10472 10469 10467 10465 10463 10462 10461 10461 10459 10457 10455 10455 10455 10455 10455 10454 10454 10454 10454 10454 10454 10455 10456 10458 10459 10459 10460 10460 10461 10462 10463 10465 10466 10467 10468 10469 10471 10474 10477 10481 10485 10488 10491 10494 10496 10499 10501 10504 10507 10511 10514 10517 10521 10524 10527 10531 10535 10538 10542 10545 10548 10552 10555 10558 10561 10565 10567 10570 10573 10577 10579 10582 10585 10587 10591 10594 10596 10598 10601
10471 10469 10468 10467 10466 10464 10462 10460 10458 10456 10455 10453 10452 10452 10452 10451 10449 10448 10447 10446 10446 10446 10446 10446 10445 10445 10446 10446 10448 10449 10450 10451 10452 10452 10452 10453 10455 10457 10458 10459 10460 10461 10463 10465 10467 10471 10474 10478 10482 10485 10488 10490 10492 10495 10498 10501 10504 10508 10511 10514 10517 10520 10523 10527 10531 10534 10537 10540 10543 10546 10550 10553 10556 10559 10562 10565 10568 10571 10574 10577 10580 10584 10586 10589 10591
10462 10461 10459 10458 10457 10455 10453 10451 10449 10448 10447 10445 10444 10444 10443 10443 10442 10441 10439 10438 10438 10437 10437 10437 10437 10437 10437 10438 10439 10440 10441 10442 10443 10443 10444 10444 10446 10448 10449 10451 10452 10453 10454 10456 10458 10460 10463 10466 10470 10474 10478 10481 10483 10485 10488 10491 10494 10497 10501 10504 10507 10510 10513 10516 10519 10523 10526 10529 10532 10535 10538 10541 10544 10548 10551 10554 10557 10560 10563 10566 10569 10572 10575 10578 10581
10453 10452 10451 10450 10448 10446 10444 10443 10441 10440 10439 10438 10437 10436 10435 10435 10434 10433 10432 10431 10430 10430 10429 10429 10429 10429 10429 10430 10431 10432 10433 10434 10434 10435 10435 10436 10437 10438 10440 10442 10443 10444 10445 10447 10448 10450 10452 10455 10458 10462 10466 10469 10473 10475 10478 10480 10483 10486 10490 10493 10496 10500 10502 10505 10509 10512 10515 10518 10521 10524 10527 10530 10533 10536 10538 10542 10545 10548 10551 10554 10557 10560 10563 10566 10568
10446 10444 10443 10442 10440 10438 10436 10434 10433 10432 10431 10430 10429 10428 10427 10426 10425 10425 10424 10423 10423 10422 10422 10422 10421 10421 10421 10422 10422 10423 10424 10425 10425 10426 10426 10427 10427 10429 10430 10431 10433 10434 10436 10437 10439 10440 10442 10444 10447 10449 10453 10457 10461 10464 10467 10470 10472 10475 10478 10481 10484 10488 10491 10494 10497 10500 10503 10506 10509 10512 10515 10518 10521 10523 10526 10529 10532 10535 10539 10542 10545 10547 10550 10553 10555
10438 10437 10436 10434 10432 10430 10428 10427 10425 10424 10423 10422 10421 10420 10419 10418 10417 10416 10416 10415 10415 10415 10414 10414 10414 10414 10414 10414 10415 10415 10415 10416 10416 10416 10417 10418 10418 10419 10421 10422 10423 10424 10426 10427 10429 10430 10432 10434 10436 10438 10441 10444 10448 10451 10455 10458 10461 10463 10466 10468 10471 10474 10478 10481 10484 10487 10490 10493 10496 10499 10502 10505 10508 10511 10513 10516 10519 10522 10525 10529 10532 10535 10537 10540 10542
10431 10430 10428 10426 10425 10423 10421 10419 10418 10416 10415 10414 10413 10412 10411 10411 10410 10409 10409 10408 10407 10407 10407 10407 10407 10406 10406 10407 10407 10407 10407 10407 10407 10408 10408 10409 10409 10410 10411 10412 10413 10415 10416 10417 10418 10420 10422 10424 10426 10428 10430 10432 10435 10438 10442 10445 10448 10451 10453 10456 10458 10461 10464 10467 10470 10473 10476 10479 10482 10485 10488 10491 10494 10497 10500 10502 10505 10508 10511 10514 10518 10521 10523 10526 10528
10424 10422 10420 10418 10417 10415 10413 10412 10411 10410 10409 10408 10407 10406 10405 10404 10403 10402 10402 10401 10401 10401 10400 10400 10399 10399 10399 10398 10399 10399 10399 10399 10399 10399 10400 10400 10401 10401 10402 10403 10404 10405 10406 10407 10408 10409 10411 10413 10415 10417 10419 10421 10423 10426 10429 10432 10435 10438 10441 10443 10446 10448 10451 10453 10456 10459 10461 10464 10467 10470 10473 10476 10479 10482 10485 10487 10490 10493 10496 10499 10502 10505 10508 10511 10514